Regional Weather Roundup
Issued by NWS

Home | Current Version | Previous Version | Graphics & Text | Print | Product List | Glossary Off
Versions: 1 2 3 4 5 6 7 8 9 10 11 12 13 14 15 16 17 18 19 20 21 22 23 24 25 26 27 28 29 30 31 32 33 34 35 36 37 38 39 40 41 42 43 44 45 46 47 48 49 50

000
ASUS43 KMPX 251310
RWRMN
WEATHER ROUNDUP FOR MINNESOTA
NATIONAL WEATHER SERVICE TWIN CITIES/CHANHASSEN MN
800 AM CDT TUE APR 25 2017


NOTE: "FAIR" INDICATES FEW OR NO CLOUDS BELOW 12,000 FEET WITH NO
SIGNIFICANT WEATHER AND/OR OBSTRUCTIONS TO VISIBILITY. N/A MEANS
CURRENT SKY AND/OR WEATHER CONDITIONS ARE NOT AVAILABLE.

MNZ060>063-068>070-251400-
   Twin Cities Metro

CITY           SKY/WX    TMP DP  RH WIND       PRES   REMARKS
TWIN CITIES    PTSUNNY   55  45  68 SW9       29.52R
ST PAUL        CLOUDY    58  41  53 S8        29.52R
CRYSTAL        CLOUDY    55  44  66 W9        29.51R
BLAINE         PTSUNNY   61  43  51 S6        29.50R
LAKEVILLE      MOSUNNY   50  46  87 W8        29.52R
EDEN PRAIRIE   CLOUDY    49  45  86 SW8       29.52R FOG
SOUTH ST PAUL  PTSUNNY   59  39  47 S6        29.51R
LAKE ELMO      PTSUNNY   59  39  47 S7        29.52R
$$
MNZ001>005-007-008-013>017-022>024-027-028-251400-
   Northwest Minnesota

CITY           SKY/WX    TMP DP  RH WIND       PRES   REMARKS
BEMIDJI        CLOUDY    35  34  99 N14G21    29.64S FOG     WCI  25
HALLOCK        CLOUDY    30  27  86 N14G23    29.82R WCI  20
ROSEAU         CLOUDY    30  27  86 N18       29.77R WCI  18
WARROAD        CLOUDY    30  27  86 N16G22    29.77R WCI  19
THIEF RVR FALL CLOUDY    30  28  92 N16G25    29.75R WCI  19
CROOKSTON      CLOUDY    32  30  93 N17       29.77R WCI  21
FOSSTON        CLOUDY    30  30 100 N17       29.70R WCI  18
DETROIT LAKES  FOG       36  34  93 N14       29.67R VSB 1/2
MOORHEAD       CLOUDY    32  30  93 N21       29.73R FOG     WCI  20
PARK RAPIDS    CLOUDY    39  35  86 N13       29.60R
MAHNOMEN       CLOUDY    32  32  99 N20       29.67R WCI  21
$$
MNZ006-009>011-018-025>026-251400-
   North Central Minnesota

CITY           SKY/WX    TMP DP  RH WIND       PRES   REMARKS
BAUDETTE       CLOUDY    31  28  89 N13       29.72R WCI  21
FLAG ISLAND    CLOUDY    30  27  86 N22       29.78R WCI  17
INTL FALLS     CLOUDY    34  32  92 N10       29.69R WCI  26
WASKISH        CLOUDY    34  32  93 N8        29.69R WCI  27
BIG FORK       CLOUDY    37  36  93 N6        29.64R
LONGVILLE      CLOUDY    39  37  93 N7        29.59S
GRAND RAPIDS   CLOUDY    38  36  92 N10       29.61S
CRANE LAKE     CLOUDY    36  36 100 N7        29.67S
ORR            CLOUDY    36  34  93 CALM      29.62R
COOK           CLOUDY    37  36  93 N3        29.63R
WALKER         CLOUDY    37  35  92 N10       29.61R
$$
MNZ012-019>021-037-251400-
   Northeast Minnesota

CITY           SKY/WX    TMP DP  RH WIND       PRES   REMARKS
DULUTH         CLOUDY    42  39  89 E6        29.58R
ELY            CLOUDY    39  39 100 CALM      29.61R
HIBBING        CLOUDY    38  37  97 N13       29.60R
EVELETH        CLOUDY    42  39  89 N5        29.60R
DULUTH HARBOR  CLOUDY    39  37  93 NE12      29.61R
TWO HARBORS    CLOUDY    45  39  81 NE6       29.57S
SILVER BAY     DRIZZLE   43  39  87 NE6       29.59F
GRAND MARAIS     N/A     40  38  93 NE6       29.63S
G MARAIS ARPRT CLOUDY    39  34  81 NE6       29.63S
$$
MNZ029>031-032-039>041-046>048-054>057-064-251400-
   West Central Minnesota

CITY           SKY/WX    TMP DP  RH WIND       PRES   REMARKS
FERGUS FALLS   CLOUDY    36  36 100 N17G25    29.64R FOG
WHEATON        CLOUDY    34  32  93 NW17G29   29.66S FOG     WCI  23
MORRIS         CLOUDY    36  34  93 NW25      29.58S FOG
ALEXANDRIA     CLOUDY    41  41 100 N13       29.57R FOG
ELBOW LAKE     CLOUDY    36  36 100 NW15G21   29.61R FOG
WADENA         CLOUDY    39  39 100 N13G21    29.59R
GLENWOOD       FOG       43  41  93 NW13      29.56S VSB 1
APPLETON       CLOUDY    36  34  93 N20G29    29.60S
BENSON         CLOUDY    37  34  87 N17G23    29.59S FOG
ORTONVILLE     CLOUDY    34  30  86 N22G30    29.60S FOG     WCI  22
MADISON        LGT RAIN  37  37 100 N14G24    29.61R
WILLMAR        FOG       39  39 100 NW14      29.56S VSB 1/2
$$
MNZ033>034-036-042>043-049>051-058-059-251400-
   Central Minnesota

CITY           SKY/WX    TMP DP  RH WIND       PRES   REMARKS
ST CLOUD       MOSUNNY   50  43  77 N8        29.52R
SAUK CENTRE    CLOUDY    43  40  89 N14       29.55R
PAYNESVILLE    CLOUDY    47  47 100 NW9       29.55R
AITKIN         MOSUNNY   45  37  76 N9        29.55S
PINE RIVER     CLOUDY    41  37  87 N15G22    29.61S
BRAINERD       PTSUNNY   43  39  86 N14       29.57R
STAPLES        CLOUDY    39  37  93 N17       29.58R
LONG PRAIRIE   CLOUDY    41  37  87 NW12      29.56R
LITTLE FALLS   SUNNY     45  37  76 N6        29.55R
LITCHFIELD     FOG       46  46 100 NW10      29.53R VSB 3/4
BUFFALO        CLOUDY    47  45  91 W7        29.53R FOG
MAPLE LAKE     CLOUDY    49  48  97 W6        29.53R FOG
HUTCHINSON     CLOUDY    45  45  99 W7        29.54R FOG
$$
MNZ037-044-045-052-053-251400-
   East Central Minnesota

CITY           SKY/WX    TMP DP  RH WIND       PRES   REMARKS
PRINCETON      MOSUNNY   48  43  81 N3        29.51R
MORA           MOSUNNY   45  37  76 CALM      29.53S
CAMBRIDGE      PTSUNNY   52  39  62 CALM      29.49R
RUSH CITY      PTSUNNY   47  41  80 CALM      29.51S
MOOSE LAKE     LGT RAIN  37  36  93 NE6       29.54S
HINCKLEY       CLOUDY    45  39  81 NE8       29.53R
CLOQUET        LGT RAIN  39  37  93 E8        29.57R
MCGREGOR       CLOUDY    41  39  93 N7        29.57S
$$
MNZ071>073-080-081-089-090-097-098-251400-
   Southwest Minnesota

CITY           SKY/WX    TMP DP  RH WIND       PRES   REMARKS
MONTEVIDEO     CLOUDY    36  36 100 N16       29.59R
GRANITE FALLS  CLOUDY    38  37  96 NW17G24   29.58F FOG
CANBY          CLOUDY    36  35  98 N16       29.60F FOG
MARSHALL       CLOUDY    36  35  96 N16G24    29.58S FOG
REDWOOD FALLS  CLOUDY    39  37  92 NW9       29.55F
OLIVIA         FOG       39  37  93 NW14G21   29.54S VSB 1
PIPESTONE      FOG       37  34  87 N12       29.56R VSB 1
WINDOM         FOG       39  37  93 NW16      29.56R VSB 1/4
WORTHINGTON    FOG       38  37  97 N16       29.56R VSB 1
JACKSON        FOG       37  37 100 N9        29.55R VSB 3/4
TRACY          CLOUDY    37  37 100 N16G22    29.57S FOG
SLAYTON        FOG       36  36 100 N16       29.57R VSB 1
$$
MNZ065>067-074>077-082>085-091>093-251400-
   South Central Minnesota

CITY           SKY/WX    TMP DP  RH WIND       PRES   REMARKS
MANKATO        CLOUDY    41  40  96 NW8       29.55R FOG
NEW ULM        CLOUDY    39  37  93 NW12      29.55S FOG
ST JAMES       CLOUDY    39  39 100 NW12      29.56S FOG
FAIRMONT       CLOUDY    41  39  93 NW13      29.56R FOG
GLENCOE        CLOUDY    45  45 100 W5        29.53R FOG
FARIBAULT      PTSUNNY   48  45  87 SW8       29.54R
OWATONNA       MOSUNNY   54  45  71 W7        29.53R
WASECA         CLOUDY    45  41  87 NW9       29.55R
ALBERT LEA     MOSUNNY   54  36  50 SW3       29.52R
$$
MNZ078>079-086>088-094>096-251400-
   Southeast Minnesota

CITY           SKY/WX    TMP DP  RH WIND       PRES   REMARKS
ROCHESTER      SUNNY     57  38  48 S13       29.54S
RED WING       CLOUDY    61  34  36 SE7       29.52R
STANTON        PTSUNNY   59  37  44 S8        29.50S
DODGE CENTER   SUNNY     57  37  47 S10       29.52S
WINONA         PTSUNNY   61  36  39 SE6       29.55S
AUSTIN         SUNNY     55  37  50 S7        29.53R
PRESTON        SUNNY     56  37  48 S8        29.55S
$$
ABBREVIATIONS USED IN REMARKS
   TC - TEMPERATURES IN CELSIUS
  WCI - WIND CHILL INDEX
   HX - HEAT INDEX
  VSB - VISIBILITY
$$




USA.gov is the U.S. government's official web portal to all federal, state and local government web resources and services.